SAPPHIRE

Satellite information

Favourite Embed

Satellite Type and Status

PAYLOADIN ORBIT

Key statistics

Satellite SAPPHIRE at a glance.

Uptime

4515

Days in orbit

Revolutions

≈ 14.4

Per day

Orbit

SSO

Sun Synchronous Orbit

Inclination

98.4

Latest

Satellite identification and parameters

Extended collection of information and parameters for SAPPHIRE.

Object identification

Identified? True

Debris? False

Object name: SAPPHIRE

International designator: 2013-009C

Object number (NORAD): 39088

Object ID (CCSDS): 39088

Country: CANADA (CA)

Current information (Y/N): Y

RCS size: MEDIUM

Orbital parameters

Period: 100.343 minutes

Inclination: 98.4152 deg

SMA: 7152.935 km

Apoapsis: 782.62 km

Periapsis: 766.979 km

RAAN: 10.3968 deg

Eccentricy: 0.0010933

Argument of periapsis: 192.3484 deg

Mean anomaly: 167.7435 deg

Mean motion: 14.35080874 rev/day

Mean motion (dot): 0.00000104 rev/day2

B* drag term: 0.000051446 1/REarth

Two-line elements (TLE)

Creation date: July 6, 2025, 6:05 p.m.

Reference frame: TEME

Reference center: EARTH

Epoch: July 6, 2025, 11:56 a.m. UTC

TLE line 0: 0 SAPPHIRE

TLE line 1: 1 39088U 13009C 25187.49727120 .00000104 00000-0 51446-4 0 9995

TLE line 2: 2 39088 98.4152 10.3968 0010933 192.3484 167.7435 14.35080874646990

Live tracking on map

Real-time ground track for satellite SAPPHIRE.

In-orbit conjunctions

There are no conjunctions computed for SAPPHIRE, at the moment. Check back to stay up to date, as we update our databases every day.

Go to all conjunctions

Associated space launch

SARAL or Satellite with ARgos and ALtiKa is a cooperative altimetry technology mission of Indian Space Research Organisation (ISRO) and CNES (Space Agency of France). SARAL is tasked to perform altimetric measurements designed to study ocean circulation and sea surface elevation.

SAPPHIRE was lifted into orbit during the mission ‘PSLV-CA | SARAL’, on board a PSLV space rocket.

The launch took place on Feb. 25, 2013, 12:31 p.m. from Satish Dhawan Space Centre First Launch Pad.

For more information about the launch, click the button.

Launch to space PSLV-CA | SARAL
PSLV-CA | SARAL

Agency: N/A

Status: Launch Successful

Launch date: Feb. 25, 2013, 12:31 p.m. UTC

Rocket: PSLV

Launch pad: Satish Dhawan Space Centre First Launch Pad

Location: Satish Dhawan Space Centre, India

...

Latest news about this satellite

There are no fresh news available about this satellite. Check back as we update our databases every day.


Newsletter sign-up

Weekly statistics, charts and insights to help you stay on top of the space industry.